Time,TemperatureF,DewpointF,PressureIn,WindDirection,WindDirectionDegrees,WindSpeedMPH,WindSpeedGustMPH,Humidity,HourlyPrecipIn,Conditions,Clouds,dailyrainin,SoftwareType,DateUTC
2013-02-07 00:01:00,41.0,29.0,-100.00,NNW,348,4.0,8.0,61,-99.99,,,-99.99,,2013-02-07 08:01:00,
2013-02-07 00:11:00,42.0,29.0,-100.00,NNE,20,3.0,8.0,59,-99.99,,,-99.99,,2013-02-07 08:11:00,
2013-02-07 00:21:00,40.0,29.0,-100.00,North,1,2.0,5.0,65,-99.99,,,-99.99,,2013-02-07 08:21:00,
2013-02-07 00:31:00,40.0,28.0,-100.00,NE,34,3.0,6.0,63,-99.99,,,-99.99,,2013-02-07 08:31:00,
2013-02-07 00:41:00,38.0,28.0,-100.00,NE,50,2.0,4.0,67,-99.99,,,-99.99,,2013-02-07 08:41:00,
2013-02-07 00:52:00,40.0,28.0,-100.00,NNE,32,2.0,4.0,62,-99.99,,,-99.99,,2013-02-07 08:52:00,
2013-02-07 01:01:00,40.0,28.0,-100.00,NNE,32,2.0,4.0,62,-99.99,,,-99.99,,2013-02-07 09:01:00,
2013-02-07 01:11:00,39.0,28.0,-100.00,NNE,29,2.0,3.0,65,-99.99,,,-99.99,,2013-02-07 09:11:00,
2013-02-07 01:21:00,40.0,30.0,-100.00,NNE,15,1.0,3.0,66,-99.99,,,-99.99,,2013-02-07 09:21:00,
2013-02-07 01:31:00,40.0,30.0,-100.00,NE,40,2.0,3.0,66,-99.99,,,-99.99,,2013-02-07 09:31:00,
2013-02-07 01:41:00,39.0,29.0,-100.00,North,8,1.0,3.0,68,-99.99,,,-99.99,,2013-02-07 09:41:00,
2013-02-07 01:51:00,39.0,29.0,-100.00,NE,36,2.0,3.0,66,-99.99,,,-99.99,,2013-02-07 09:51:00,
2013-02-07 02:01:00,39.0,29.0,-100.00,NE,36,2.0,3.0,66,-99.99,,,-99.99,,2013-02-07 10:01:00,
2013-02-07 02:11:00,39.0,29.0,-100.00,NNE,15,2.0,3.0,68,-99.99,,,-99.99,,2013-02-07 10:11:00,
2013-02-07 02:22:00,39.0,29.0,-100.00,NNE,19,2.0,4.0,68,-99.99,,,-99.99,,2013-02-07 10:22:00,
2013-02-07 02:31:00,39.0,30.0,-100.00,NE,55,2.0,3.0,69,-99.99,,,-99.99,,2013-02-07 10:31:00,
2013-02-07 02:41:00,37.0,28.0,-100.00,NNE,29,1.0,2.0,71,-99.99,,,-99.99,,2013-02-07 10:41:00,
2013-02-07 02:51:00,38.0,29.0,-100.00,NE,40,2.0,3.0,71,-99.99,,,-99.99,,2013-02-07 10:51:00,
2013-02-07 03:01:00,38.0,29.0,-100.00,NE,40,2.0,3.0,71,-99.99,,,-99.99,,2013-02-07 11:01:00,
2013-02-07 03:11:00,36.0,29.0,-100.00,ENE,66,2.0,3.0,75,-99.99,,,-99.99,,2013-02-07 11:11:00,
2013-02-07 03:22:00,36.0,30.0,-100.00,NE,53,3.0,3.0,78,-99.99,,,-99.99,,2013-02-07 11:22:00,
2013-02-07 03:32:00,36.0,29.0,-100.00,NNE,25,3.0,4.0,77,-99.99,,,-99.99,,2013-02-07 11:32:00,
2013-02-07 03:43:00,38.0,30.0,-100.00,NE,39,1.0,3.0,72,-99.99,,,-99.99,,2013-02-07 11:43:00,
2013-02-07 03:52:00,37.0,29.0,-100.00,NE,46,1.0,2.0,73,-99.99,,,-99.99,,2013-02-07 11:52:00,
2013-02-07 04:01:00,36.0,29.0,-100.00,NNE,25,1.0,2.0,77,-99.99,,,-99.99,,2013-02-07 12:01:00,
2013-02-07 04:11:00,36.0,30.0,-100.00,NNE,14,3.0,5.0,78,-99.99,,,-99.99,,2013-02-07 12:11:00,
2013-02-07 04:22:00,36.0,30.0,-100.00,NNE,23,3.0,4.0,79,-99.99,,,-99.99,,2013-02-07 12:22:00,
2013-02-07 04:32:00,35.0,29.0,-100.00,NE,46,1.0,2.0,80,-99.99,,,-99.99,,2013-02-07 12:32:00,
2013-02-07 04:42:00,35.0,30.0,-100.00,NNE,22,1.0,3.0,81,-99.99,,,-99.99,,2013-02-07 12:42:00,
2013-02-07 04:52:00,36.0,30.0,-100.00,NNE,23,2.0,4.0,78,-99.99,,,-99.99,,2013-02-07 12:52:00,
2013-02-07 05:02:00,37.0,30.0,-100.00,East,79,2.0,3.0,76,-99.99,,,-99.99,,2013-02-07 13:02:00,
2013-02-07 05:11:00,35.0,29.0,-100.00,NNE,27,2.0,3.0,78,-99.99,,,-99.99,,2013-02-07 13:11:00,
2013-02-07 05:21:00,36.0,29.0,-100.00,NE,42,3.0,3.0,77,-99.99,,,-99.99,,2013-02-07 13:21:00,
2013-02-07 05:31:00,35.0,29.0,-100.00,NNE,25,2.0,3.0,80,-99.99,,,-99.99,,2013-02-07 13:31:00,
2013-02-07 05:41:00,35.0,29.0,-100.00,NNE,25,2.0,3.0,80,-99.99,,,-99.99,,2013-02-07 13:41:00,
2013-02-07 05:51:00,36.0,29.0,-100.00,NE,40,2.0,3.0,77,-99.99,,,-99.99,,2013-02-07 13:51:00,
2013-02-07 06:01:00,35.0,29.0,-100.00,NNE,24,3.0,4.0,79,-99.99,,,-99.99,,2013-02-07 14:01:00,
2013-02-07 06:11:00,34.0,29.0,-100.00,NNE,21,2.0,3.0,81,-99.99,,,-99.99,,2013-02-07 14:11:00,
2013-02-07 06:21:00,35.0,29.0,-100.00,ENE,66,1.0,3.0,80,-99.99,,,-99.99,,2013-02-07 14:21:00,
2013-02-07 06:31:00,35.0,29.0,-100.00,NNE,29,2.0,3.0,79,-99.99,,,-99.99,,2013-02-07 14:31:00,
2013-02-07 06:41:00,36.0,29.0,-100.00,NNE,15,3.0,5.0,77,-99.99,,,-99.99,,2013-02-07 14:41:00,
2013-02-07 06:52:00,35.0,29.0,-100.00,NNE,23,3.0,4.0,79,-99.99,,,-99.99,,2013-02-07 14:52:00,
2013-02-07 07:01:00,35.0,29.0,-100.00,NNE,23,3.0,4.0,79,-99.99,,,-99.99,,2013-02-07 15:01:00,
2013-02-07 07:11:00,34.0,28.0,-100.00,NE,45,2.0,3.0,78,-99.99,,,-99.99,,2013-02-07 15:11:00,
2013-02-07 07:21:00,34.0,28.0,-100.00,NNE,27,2.0,3.0,80,-99.99,,,-99.99,,2013-02-07 15:21:00,
2013-02-07 07:32:00,35.0,29.0,-100.00,NNE,30,3.0,4.0,77,-99.99,,,-99.99,,2013-02-07 15:32:00,
2013-02-07 07:41:00,36.0,28.0,-100.00,NE,35,3.0,4.0,73,-99.99,,,-99.99,,2013-02-07 15:41:00,
2013-02-07 07:52:00,36.0,29.0,-100.00,NNE,29,2.0,3.0,74,-99.99,,,-99.99,,2013-02-07 15:52:00,
2013-02-07 08:01:00,36.0,29.0,-100.00,NE,56,1.0,2.0,75,-99.99,,,-99.99,,2013-02-07 16:01:00,
2013-02-07 08:11:00,39.0,30.0,-100.00,ENE,60,2.0,3.0,70,-99.99,,,-99.99,,2013-02-07 16:11:00,
2013-02-07 08:21:00,41.0,31.0,-100.00,NE,54,0.0,2.0,66,-99.99,,,-99.99,,2013-02-07 16:21:00,
2013-02-07 08:31:00,44.0,30.0,-100.00,SSE,156,1.0,2.0,58,-99.99,,,-99.99,,2013-02-07 16:31:00,
2013-02-07 08:41:00,44.0,30.0,-100.00,SSE,156,1.0,2.0,58,-99.99,,,-99.99,,2013-02-07 16:41:00,
2013-02-07 08:52:00,49.0,31.0,-100.00,East,89,0.0,1.0,50,-99.99,,,-99.99,,2013-02-07 16:52:00,
2013-02-07 09:01:00,49.0,31.0,-100.00,East,89,0.0,1.0,50,-99.99,,,-99.99,,2013-02-07 17:01:00,
2013-02-07 09:11:00,52.0,30.0,-100.00,SSE,161,1.0,2.0,42,-99.99,,,-99.99,,2013-02-07 17:11:00,
2013-02-07 09:21:00,51.0,29.0,-100.00,South,177,2.0,3.0,43,-99.99,,,-99.99,,2013-02-07 17:21:00,
2013-02-07 09:31:00,52.0,30.0,-100.00,South,190,3.0,4.0,43,-99.99,,,-99.99,,2013-02-07 17:31:00,
2013-02-07 09:42:00,53.0,30.0,-100.00,South,187,3.0,4.0,41,-99.99,,,-99.99,,2013-02-07 17:42:00,
2013-02-07 09:52:00,55.0,26.0,-100.00,SSW,198,4.0,5.0,33,-99.99,,,-99.99,,2013-02-07 17:52:00,
2013-02-07 10:01:00,55.0,26.0,-100.00,SSW,198,4.0,5.0,33,-99.99,,,-99.99,,2013-02-07 18:01:00,
2013-02-07 10:11:00,57.0,25.0,-100.00,South,189,3.0,4.0,29,-99.99,,,-99.99,,2013-02-07 18:11:00,
2013-02-07 10:22:00,58.0,25.0,-100.00,SSW,195,5.0,7.0,28,-99.99,,,-99.99,,2013-02-07 18:22:00,
2013-02-07 10:31:00,59.0,23.0,-100.00,South,174,5.0,7.0,25,-99.99,,,-99.99,,2013-02-07 18:31:00,
2013-02-07 10:41:00,59.0,21.0,-100.00,South,170,6.0,10.0,23,-99.99,,,-99.99,,2013-02-07 18:41:00,
2013-02-07 10:51:00,60.0,21.0,-100.00,SSE,153,6.0,11.0,22,-99.99,,,-99.99,,2013-02-07 18:51:00,
2013-02-07 11:01:00,60.0,21.0,-100.00,South,176,9.0,14.0,22,-99.99,,,-99.99,,2013-02-07 19:01:00,
2013-02-07 11:11:00,60.0,21.0,-100.00,SSW,195,10.0,16.0,22,-99.99,,,-99.99,,2013-02-07 19:11:00,
2013-02-07 11:22:00,61.0,20.0,-100.00,South,189,9.0,15.0,20,-99.99,,,-99.99,,2013-02-07 19:22:00,
2013-02-07 11:31:00,61.0,20.0,-100.00,SSW,192,9.0,16.0,20,-99.99,,,-99.99,,2013-02-07 19:31:00,
2013-02-07 11:41:00,61.0,18.0,-100.00,South,178,8.0,12.0,19,-99.99,,,-99.99,,2013-02-07 19:41:00,
2013-02-07 11:51:00,61.0,17.0,-100.00,South,186,9.0,14.0,18,-99.99,,,-99.99,,2013-02-07 19:51:00,
2013-02-07 12:01:00,62.0,19.0,-100.00,SSW,197,9.0,15.0,19,-99.99,,,-99.99,,2013-02-07 20:01:00,
2013-02-07 12:11:00,62.0,20.0,-100.00,South,185,9.0,14.0,20,-99.99,,,-99.99,,2013-02-07 20:11:00,
2013-02-07 12:21:00,62.0,23.0,-100.00,South,189,10.0,15.0,22,-99.99,,,-99.99,,2013-02-07 20:21:00,
2013-02-07 12:31:00,62.0,18.0,-100.00,SSW,206,7.0,12.0,18,-99.99,,,-99.99,,2013-02-07 20:31:00,
2013-02-07 12:41:00,62.0,18.0,-100.00,SSW,206,7.0,12.0,18,-99.99,,,-99.99,,2013-02-07 20:41:00,
2013-02-07 12:52:00,61.0,18.0,-100.00,SW,227,9.0,15.0,19,-99.99,,,-99.99,,2013-02-07 20:52:00,
2013-02-07 13:01:00,61.0,18.0,-100.00,SW,227,9.0,15.0,19,-99.99,,,-99.99,,2013-02-07 21:01:00,
2013-02-07 13:11:00,61.0,16.0,-100.00,SW,224,10.0,15.0,17,-99.99,,,-99.99,,2013-02-07 21:11:00,
2013-02-07 13:21:00,61.0,17.0,-100.00,SW,236,10.0,15.0,18,-99.99,,,-99.99,,2013-02-07 21:21:00,
2013-02-07 13:31:00,61.0,17.0,-100.00,WSW,237,9.0,15.0,18,-99.99,,,-99.99,,2013-02-07 21:31:00,
2013-02-07 13:41:00,61.0,17.0,-100.00,WSW,250,10.0,16.0,18,-99.99,,,-99.99,,2013-02-07 21:41:00,
2013-02-07 13:51:00,61.0,17.0,-100.00,WSW,241,8.0,14.0,18,-99.99,,,-99.99,,2013-02-07 21:51:00,
2013-02-07 14:01:00,61.0,18.0,-100.00,WSW,240,8.0,14.0,19,-99.99,,,-99.99,,2013-02-07 22:01:00,
2013-02-07 14:11:00,61.0,18.0,-100.00,WSW,250,9.0,13.0,19,-99.99,,,-99.99,,2013-02-07 22:11:00,
2013-02-07 14:21:00,60.0,18.0,-100.00,SW,236,8.0,15.0,19,-99.99,,,-99.99,,2013-02-07 22:21:00,
2013-02-07 14:31:00,60.0,20.0,-100.00,WSW,248,8.0,13.0,21,-99.99,,,-99.99,,2013-02-07 22:31:00,
2013-02-07 14:42:00,60.0,23.0,-100.00,SW,232,7.0,13.0,24,-99.99,,,-99.99,,2013-02-07 22:42:00,
2013-02-07 14:51:00,60.0,25.0,-100.00,SW,216,8.0,14.0,26,-99.99,,,-99.99,,2013-02-07 22:51:00,
2013-02-07 15:01:00,60.0,28.0,-100.00,SW,223,9.0,14.0,30,-99.99,,,-99.99,,2013-02-07 23:01:00,
2013-02-07 15:11:00,59.0,29.0,-100.00,SW,222,9.0,15.0,32,-99.99,,,-99.99,,2013-02-07 23:11:00,
2013-02-07 15:21:00,59.0,31.0,-100.00,SW,224,10.0,17.0,34,-99.99,,,-99.99,,2013-02-07 23:21:00,
2013-02-07 15:31:00,59.0,32.0,-100.00,WSW,253,7.0,12.0,36,-99.99,,,-99.99,,2013-02-07 23:31:00,
2013-02-07 15:41:00,59.0,33.0,-100.00,WSW,252,7.0,21.0,38,-99.99,,,-99.99,,2013-02-07 23:41:00,
2013-02-07 15:52:00,59.0,33.0,-100.00,NW,313,4.0,11.0,37,-99.99,,,-99.99,,2013-02-07 23:52:00,
2013-02-07 16:01:00,59.0,32.0,-100.00,WSW,249,6.0,13.0,36,-99.99,,,-99.99,,2013-02-08 00:01:00,
2013-02-07 16:11:00,59.0,33.0,-100.00,SW,229,6.0,11.0,38,-99.99,,,-99.99,,2013-02-08 00:11:00,
2013-02-07 16:21:00,58.0,29.0,-100.00,SW,220,8.0,14.0,33,-99.99,,,-99.99,,2013-02-08 00:21:00,
2013-02-07 16:31:00,58.0,30.0,-100.00,SW,219,8.0,12.0,34,-99.99,,,-99.99,,2013-02-08 00:31:00,
2013-02-07 16:41:00,57.0,30.0,-100.00,WSW,244,7.0,11.0,35,-99.99,,,-99.99,,2013-02-08 00:41:00,
2013-02-07 16:52:00,57.0,28.0,-100.00,SW,220,8.0,11.0,33,-99.99,,,-99.99,,2013-02-08 00:52:00,
2013-02-07 17:01:00,57.0,29.0,-100.00,SSW,195,7.0,11.0,34,-99.99,,,-99.99,,2013-02-08 01:01:00,
2013-02-07 17:11:00,56.0,30.0,-100.00,SSW,203,7.0,9.0,37,-99.99,,,-99.99,,2013-02-08 01:11:00,
2013-02-07 17:21:00,56.0,33.0,-100.00,South,181,7.0,10.0,42,-99.99,,,-99.99,,2013-02-08 01:21:00,
2013-02-07 17:31:00,56.0,33.0,-100.00,South,181,7.0,10.0,42,-99.99,,,-99.99,,2013-02-08 01:31:00,
2013-02-07 17:41:00,54.0,37.0,-100.00,SSE,159,4.0,6.0,52,-99.99,,,-99.99,,2013-02-08 01:41:00,
2013-02-07 17:51:00,52.0,41.0,-100.00,SSE,147,5.0,7.0,67,-99.99,,,-99.99,,2013-02-08 01:51:00,
2013-02-07 18:01:00,52.0,41.0,-100.00,SSE,147,5.0,7.0,67,-99.99,,,-99.99,,2013-02-08 02:01:00,
2013-02-07 18:11:00,51.0,43.0,-100.00,SSW,204,3.0,7.0,73,-99.99,,,-99.99,,2013-02-08 02:11:00,
2013-02-07 18:21:00,49.0,43.0,-100.00,South,187,5.0,8.0,79,-99.99,,,-99.99,,2013-02-08 02:21:00,
2013-02-07 18:31:00,48.0,43.0,-100.00,SSW,193,4.0,7.0,82,-99.99,,,-99.99,,2013-02-08 02:31:00,
2013-02-07 18:42:00,47.0,43.0,-100.00,South,178,1.0,4.0,85,-99.99,,,-99.99,,2013-02-08 02:42:00,
2013-02-07 18:52:00,47.0,43.0,-100.00,SE,132,3.0,6.0,87,-99.99,,,-99.99,,2013-02-08 02:52:00,
2013-02-07 19:01:00,46.0,42.0,-100.00,ENE,63,2.0,5.0,87,-99.99,,,-99.99,,2013-02-08 03:01:00,
2013-02-07 19:12:00,46.0,42.0,-100.00,NNE,22,4.0,5.0,87,-99.99,,,-99.99,,2013-02-08 03:12:00,
2013-02-07 19:22:00,46.0,41.0,-100.00,NW,319,3.0,4.0,83,-99.99,,,-99.99,,2013-02-08 03:22:00,
2013-02-07 19:31:00,45.0,40.0,-100.00,NW,323,3.0,4.0,82,-99.99,,,-99.99,,2013-02-08 03:31:00,
2013-02-07 19:41:00,45.0,40.0,-100.00,NW,322,2.0,4.0,82,-99.99,,,-99.99,,2013-02-08 03:41:00,
2013-02-07 19:51:00,45.0,40.0,-100.00,North,358,2.0,3.0,82,-99.99,,,-99.99,,2013-02-08 03:51:00,
2013-02-07 20:01:00,45.0,40.0,-100.00,NNE,26,3.0,5.0,82,-99.99,,,-99.99,,2013-02-08 04:01:00,
2013-02-07 20:11:00,44.0,39.0,-100.00,South,173,1.0,2.0,82,-99.99,,,-99.99,,2013-02-08 04:11:00,
2013-02-07 20:21:00,43.0,39.0,-100.00,SSE,166,1.0,2.0,85,-99.99,,,-99.99,,2013-02-08 04:21:00,
2013-02-07 20:31:00,42.0,38.0,-100.00,East,91,1.0,3.0,85,-99.99,,,-99.99,,2013-02-08 04:31:00,
2013-02-07 20:41:00,42.0,38.0,-100.00,NNW,327,1.0,3.0,85,-99.99,,,-99.99,,2013-02-08 04:41:00,
2013-02-07 20:51:00,43.0,39.0,-100.00,SW,235,1.0,3.0,85,-99.99,,,-99.99,,2013-02-08 04:51:00,
2013-02-07 21:01:00,43.0,38.0,-100.00,WSW,252,2.0,4.0,83,-99.99,,,-99.99,,2013-02-08 05:01:00,
2013-02-07 21:11:00,42.0,38.0,-100.00,NW,314,1.0,2.0,84,-99.99,,,-99.99,,2013-02-08 05:11:00,
2013-02-07 21:22:00,42.0,38.0,-100.00,NW,323,1.0,3.0,84,-99.99,,,-99.99,,2013-02-08 05:22:00,
2013-02-07 21:31:00,43.0,37.0,-100.00,WSW,251,1.0,4.0,80,-99.99,,,-99.99,,2013-02-08 05:31:00,
2013-02-07 21:41:00,43.0,37.0,-100.00,WSW,251,1.0,4.0,80,-99.99,,,-99.99,,2013-02-08 05:41:00,
2013-02-07 21:52:00,43.0,37.0,-100.00,WSW,255,2.0,3.0,80,-99.99,,,-99.99,,2013-02-08 05:52:00,
2013-02-07 22:01:00,43.0,37.0,-100.00,WSW,250,4.0,10.0,80,-99.99,,,-99.99,,2013-02-08 06:01:00,
2013-02-07 22:11:00,43.0,37.0,-100.00,SW,229,6.0,10.0,79,-99.99,,,-99.99,,2013-02-08 06:11:00,
2013-02-07 22:21:00,42.0,36.0,-100.00,WSW,238,8.0,13.0,79,-99.99,,,-99.99,,2013-02-08 06:21:00,
2013-02-07 22:31:00,42.0,36.0,-100.00,WSW,238,6.0,11.0,79,-99.99,,,-99.99,,2013-02-08 06:31:00,
2013-02-07 22:41:00,42.0,37.0,-100.00,SW,227,6.0,9.0,81,-99.99,,,-99.99,,2013-02-08 06:41:00,
2013-02-07 22:51:00,42.0,36.0,-100.00,WSW,241,5.0,8.0,80,-99.99,,,-99.99,,2013-02-08 06:51:00,
2013-02-07 23:01:00,42.0,36.0,-100.00,WSW,251,6.0,10.0,80,-99.99,,,-99.99,,2013-02-08 07:01:00,
2013-02-07 23:11:00,41.0,36.0,-100.00,WSW,242,6.0,10.0,81,-99.99,,,-99.99,,2013-02-08 07:11:00,
2013-02-07 23:21:00,41.0,36.0,-100.00,SW,225,8.0,12.0,81,-99.99,,,-99.99,,2013-02-08 07:21:00,
2013-02-07 23:31:00,41.0,35.0,-100.00,WSW,237,6.0,9.0,80,-99.99,,,-99.99,,2013-02-08 07:31:00,
2013-02-07 23:42:00,41.0,35.0,-100.00,WSW,239,7.0,9.0,80,-99.99,,,-99.99,,2013-02-08 07:42:00,
2013-02-07 23:51:00,41.0,34.0,-100.00,West,260,8.0,15.0,77,-99.99,,,-99.99,,2013-02-08 07:51:00,